Flag for Canada Weather past 2 weeks in Burlington, Ontario, Canada

Now
69 °F

Mild.


Feels Like: 69 °F
Forecast: 62 / 75 °F
Wind: 5 mph from West

Location: Burlington Piers

Current Time: Aug 3, 2015 at 11:56:53 PM

Latest Report: Aug 3, 2015 at 11:00 PM


Visibility: N/A

Pressure: 29.79 "Hg

Humidity: 69%

Dew point: 59 °F

Location of BurlingtonLocation

Historic Weather in Burlington — Graph

°F

Burlington temperature yesterday

Maximum temperature yesterday: 82 °F (at 5:00 PM)
Minimum temperature yesterday: 64 °F (at 7:00 PM)
Average temperature yesterday: 73 °F

Past Weeks' High & Low Weather Summary

 TemperatureHumidityPressure
High89 °F (Jul 29, 5:00 PM)87% (Jul 20, 3:00 AM)30.03 "Hg (Jul 20, 3:00 AM)
Low62 °F (Jul 22, 7:00 AM)28% (Jul 24, 2:00 PM)29.61 "Hg (Aug 2, 10:00 PM)
Average74 °F59%29.86 "Hg
* Reported Jul 19 10:00 PM — Aug 3 10:00 PM, Burlington, Weather by CustomWeather, © 2015

Note: Actual official high and low records may vary slightly from our data, if they occured in-between our weather recording intervals... More about our weather records

Advertising

Burlington weather history for previous 24 hours

 ConditionsComfort  
Time TempWeatherWind HumidityBarometerVisibility
10:00 PM
Mon, Aug 3
70 °FMild.6 mph70%29.79 "HgN/A
9:00 PM70 °FMild.6 mph64%29.77 "HgN/A
8:00 PM76 °FMild.6 mph43%29.75 "HgN/A
7:00 PM77 °FMild.6 mph41%29.73 "HgN/A
6:00 PM78 °FWarm.6 mph41%29.71 "HgN/A
5:00 PM78 °FPleasantly warm.7 mph40%29.73 "HgN/A
4:00 PM78 °FWarm.7 mph42%29.74 "HgN/A
3:00 PM77 °FWarm.9 mph41%29.74 "HgN/A
2:00 PM76 °FMild.10 mph47%29.73 "HgN/A
1:00 PM76 °FMild.8 mph48%N/AN/A
12:00 PM74 °FMild.8 mph57%N/AN/A
11:00 AM71 °FMild.10 mph69%N/AN/A
10:00 AM71 °FMild.10 mph73%29.71 "HgN/A
9:00 AM68 °FMild.9 mph78%29.70 "HgN/A
8:00 AM68 °FMild.9 mph75%29.70 "HgN/A
7:00 AM66 °FMild.7 mph80%29.68 "HgN/A
6:00 AM66 °FMild.10 mph84%29.67 "HgN/A
5:00 AM66 °FMild.12 mph83%29.68 "HgN/A
4:00 AM66 °FMild.9 mph81%29.63 "HgN/A
3:00 AM65 °FMild.13 mph83%29.63 "HgN/A
2:00 AM66 °FMild.9 mph84%29.66 "HgN/A
Weather by CustomWeather, © 2015

See weather overviewHow to use our weather pages